SL-16 DEB, 39300

Orbit data source: Space-Track

SL-16 DEB, 39300 is space debris in LEO originally from a launch on Fri, 25 Dec 1992 UTC launched from the Tyuratam Missile And Space Complex (TTMTR). Debris objects in space refer to the collection of defunct objects orbiting the Earth. Examples of debris include non-operational satellites, rocket bodies, and fragments generated from explosions, collisions, or faulty payload assembly.

Loading next visibility...
Identifier
39300, 1992-093JR
Orbit
LEO
Country
Flag of CISCIS
Related business
Manufacturer
Unknown
Mission
Spacecraft
Bus & Motor
Unknown
Mass
Unknown
Launch date (UTC)
1992-12-25 (33 years ago)
Launch vehicle
Unknown
Launch site
Tyuratam Missile And Space Complex (TTMTR)
Object type
Payload
Rocket body
Debris
Shape & HBR
Unknown shape, 0.1 m
Radar Cross Section
Small (<0.1 m²)

Expand to show TLE details & history
Last TLE update: 3 days ago

TLE from 3 days ago
0 SL-16 DEB
1 39300U 92093JR  25301.88431965  .00000256  00000-0  20674-3 0  9998
2 39300  71.1199 159.9394 0106083 277.3227  81.5839 13.96825663617639
Epoch: 2025-10-28T21:13Z
TLE epoch observation values (Epoch: 2025-10-28T21:13:25.217Z)
Latitude
-0.00011°
Longitude
164.11889°
Altitude
896.69 km
Speed
7.409 km/s
True Right ascension
10h 39m 45s
True Declination
0° 00' 00"
Sunlit
Object was in daylight at epoch
Visualization orbit readout
Latitude
Unknown
Longitude
Unknown
Altitude
Unknown
Speed
Unknown
Apparent Right ascension
Unknown
Apparent Declination
Unknown
Sunlit
N/A
Visualization observer readout
Local Sidereal Time
08:13:08
Azimuth
Unknown
Elevation
Unknown
Doppler factor
Unknown
Orbital elements
Apogee altitude
979.977 km
Perigee altitude
825.501 km
Semi-major axis
7,280.876 km
Eccentricity
0.01061
Inclination
71.1199°
RAAN
159.9394°
Arg. of periapsis
277.3227°
True anomaly
82.78868°
Mean anomaly
81.5839°
Eccentric anomaly
82.18607°
Mean motion
3.49356 °/min
Orbital period
103.05 mins
BSTAR
0.00020674
Loading maneuver chart data...
Computing Atmospheric mass density...
Loading historical data...
Loading historical data...
Loading historical data...
Loading historical data...
Loading historical data...
Loading historical data...
Loading historical data...

Documentation

Showing up to 5 results
|